STARLINK-4596, 53624

Orbit data source: Space-Track

STARLINK-4596, 53624 is a payload satellite owned by SpaceX/Seattle (US) in LEO that was launched on Sun, 28 Aug 2022 UTC via an FALCON 9 launch vehicle from the Air Force Eastern Test Range (AFETR). Payload-class satellites include a variety of spacecraft equipped with specific instruments for various scientific and technological missions. These include communications satellites like Starlink; space stations such as the ISS; scientific satellites like the Hubble; Earth observation satellites from companies like Planet Labs, Umbra, and HawkEye 360; GPS; miniature CubeSats for education and research; and military/defense satellites.

Loading next visibility...
Identifier
53624, 2022-104AN
Orbit
LEO
Country
Flag of USUS
Related business
Manufacturer
SpaceX/Seattle
Mission
Operational Commercial Communications
Bus & Motor
STARLINK, Unknown motor
Mass
300 kg wet, ~290 kg dry
Launch date (UTC)
2022-08-28 (3 years ago)
Launch vehicle
FALCON 9
Launch site
Air Force Eastern Test Range (AFETR)
Object type
Payload
Rocket body
Debris
Shape & HBR
Box + 1 Pan, 10.1 m
Radar Cross Section
13.562 m², Large (>1 m²)

Expand to show TLE details & history
Last TLE update: 1 day ago

TLE from 1 day ago
0 STARLINK-4596
1 53624U 22104AN  25301.17793614  .00000297  00000-0  36760-4 0  9992
2 53624  53.2172 108.7501 0001469  87.0288 273.0872 15.08837393175747
Epoch: 2025-10-28T04:16Z
TLE epoch observation values (Epoch: 2025-10-28T04:16:13.682Z)
Latitude
-0.00004°
Longitude
7.9239°
Altitude
540.594 km
Speed
7.593 km/s
True Right ascension
07h 15m 00s
True Declination
0° 00' 00"
Sunlit
Object was in daylight at epoch
Visualization orbit readout
Latitude
Unknown
Longitude
Unknown
Altitude
Unknown
Speed
Unknown
Apparent Right ascension
Unknown
Apparent Declination
Unknown
Sunlit
N/A
Visualization observer readout
Local Sidereal Time
00:41:06
Azimuth
Unknown
Elevation
Unknown
Doppler factor
Unknown
Orbital elements
Apogee altitude
541.013 km
Perigee altitude
538.98 km
Semi-major axis
6,918.133 km
Eccentricity
0.00015
Inclination
53.2172°
RAAN
108.7501°
Arg. of periapsis
87.0288°
True anomaly
273.07039°
Mean anomaly
273.0872°
Eccentric anomaly
273.0788°
Mean motion
3.7719 °/min
Orbital period
95.44 mins
BSTAR
0.00003676
Loading maneuver chart data...
Computing Atmospheric mass density...
Loading historical data...
Loading historical data...
Loading historical data...
Loading historical data...
Loading historical data...
Loading historical data...
Loading historical data...

Documentation

Showing up to 5 results
|